Regional Weather Roundup
Issued by NWS

Home | Current Version | Previous Version | Text Only | Print | Product List | Glossary On
Versions: 1 2 3 4 5 6 7 8 9 10 11 12 13 14 15 16 17 18 19 20 21 22 23 24 25 26 27 28 29 30 31 32 33 34 35 36 37 38 39 40 41 42 43 44 45 46 47 48 49 50
000
ASUS43 KDTX 210710
RWRMI
MICHIGAN HOURLY REGIONAL WEATHER ROUNDUP
NATIONAL WEATHER SERVICE DETROIT/PONTIAC MI
200 AM EST SUN DEC 21 2014

NOTE: "FAIR" INDICATES FEW OR NO CLOUDS BELOW 12,000 FEET WITH NO
SIGNIFICANT WEATHER AND/OR OBSTRUCTION TO VISIBILITY.

MIZ047>049-052>055-059>063-066>070-074>076-081>083-210800-
SOUTHEAST LOWER MICHIGAN

CITY           SKY/WX    TMP DP  RH WIND       PRES   REMARKS
ADRIAN         CLOUDY    24  22  91 CALM      30.28S FOG
ALMA           CLOUDY    28  26  89 S3        30.26S
ANN ARBOR      MOCLDY    19  18  95 CALM      30.27S FOG
BAD AXE        CLEAR     16  15  97 CALM      30.28R
DETROIT CITY   CLOUDY    32  19  58 W3        30.29R
DETROIT        CLOUDY    30  23  75 CALM      30.29S
FLINT          MOCLDY    21  17  84 CALM      30.27S
GROSSE ILE     CLOUDY    30  27  86 CALM      30.27S
HILLSDALE      CLOUDY    28  25  90 CALM      30.24S
HOWELL         CLOUDY    24  22  94 CALM      30.25S

CITY           SKY/WX    TMP DP  RH WIND       PRES   REMARKS
JACKSON        CLOUDY    27  23  85 CALM      30.25F
LAMBERTVILLE   CLEAR     27  23  86 CALM      30.28S FOG
LANSING        CLOUDY    28  22  78 S5        30.27S
LAPEER         NOT AVBL
MASON          CLOUDY    27  23  86 S3        30.26S
MONROE         CLOUDY    30  27  86 CALM      30.27S
MT. CLEMENS    CLOUDY    29  25  84 SW3       30.27R
PONTIAC        CLEAR     23  19  85 CALM      30.25S
PORT HOPE        N/A     22  18  85 SW5       30.27R
PORT HURON     CLOUDY    23  23 100 CALM      30.29R FOG
TRI CITIES     CLOUDY    27  23  85 S3        30.28S
YPSILANTI      PTCLDY    29  22  75 CALM      30.28S
$$
MIZ043>046-050>051-056>058-064>065-071>073-077>080-210800-
SOUTHWEST LOWER MICHIGAN

CITY           SKY/WX    TMP DP  RH WIND       PRES   REMARKS
BATTLE CREEK   CLOUDY    30  27  88 S3        30.25S FOG
BENTON HARBOR  CLOUDY    30  26  85 S6        30.26S
BIG RAPIDS     CLOUDY    29  29 100 CALM      30.22S FOG
COLDWATER      CLOUDY    29  28  92 MISG      30.25F FOG
HOLLAND        CLOUDY    33  27  78 S8        30.25S
GRAND RAPIDS   CLOUDY    30  27  88 S6        30.25S FOG
KALAMAZOO      CLOUDY    30  27  88 S6        30.25F FOG
MARSHALL       CLOUDY    28  25  89 CALM      30.25S
MUSKEGON       CLOUDY    31  28  89 SE6       30.24S FOG
$$
MIZ016>042-210800-
NORTHERN LOWER MICHIGAN

CITY           SKY/WX    TMP DP  RH WIND       PRES   REMARKS
ALPENA         CLOUDY    24  21  88 SW3       30.26S
BEAVER ISLAND  CLOUDY    31  26  81 CALM      30.22S
BELLAIRE       CLOUDY    27  23  84 CALM      30.25S
CADILLAC       CLOUDY    26  23  87 CALM      30.20S
CHARLEVOIX     CLOUDY    27  22  82 SE6       30.26S
FRANKFORT      CLOUDY    29  26  88 SE3       30.22F
GAYLORD        CLOUDY    19  17  92 CALM      30.21S
GRAYLING       CLOUDY    21  19  94 CALM      30.23S
HARBOR SPRINGS CLOUDY    24  20  86 E3        30.24S
HOUGHTON LAKE  CLOUDY    22  19  89 CALM      30.23S
MANISTEE       CLOUDY    28  25  86 SE5       30.23S
OSCODA         CLEAR     13  12  95 CALM      30.26S
PELLSTON       CLOUDY    22  20  92 CALM      30.24S
TRAVERSE CITY  CLOUDY    28  22  78 S3        30.23S
$$
MIZ007>008-015-210800-
EASTERN UPPER MICHIGAN

CITY           SKY/WX    TMP DP  RH WIND       PRES   REMARKS
KINROSS        CLOUDY    25  21  86 SE7       30.23S
MACKINAC ISLAN CLOUDY    27  21  78 S7        30.23F
NEWBERRY       CLOUDY    26  23  89 SE8       30.20F
S. S. MARIE    CLOUDY    24  19  81 CALM      30.23R
$$
MIZ004>006-011>014-085-210800-
CENTRAL UPPER MICHIGAN

CITY           SKY/WX    TMP DP  RH WIND       PRES   REMARKS
MANISTIQUE     CLOUDY    26  25  94 CALM      30.20S
ESCANABA       CLOUDY    27  23  86 CALM      30.19F
MENOMINEE      CLOUDY    28  25  86 CALM      30.19F
SAWYER-GWINN   CLOUDY    26  23  89 SW7       30.14S
$$
MIZ001>003-009>011-084-210800-
WESTERN UPPER MICHIGAN

CITY           SKY/WX    TMP DP  RH WIND       PRES   REMARKS
IRON MOUNTAIN  CLOUDY    27  23  85 S6        30.14F
HOUGHTON       CLOUDY    29  25  85 S7        30.10F
COPPER HARBOR    N/A     31  26  82 SW5       30.13S
IRONWOOD       CLOUDY    30  27  86 S6        30.05F
$$

ABBREVIATIONS USED IN REMARKS
   TC - TEMPERATURE IN CELSIUS
  WCI - WIND CHILL INDEX
   HX - HEAT INDEX
  VSB - VISIBILITY



USA.gov is the U.S. government's official web portal to all federal, state and local government web resources and services.